Location: Cisewo
(53.3833°N, 14.9000°E)
Time: 12:07:07
(UTC+00:00)

Cosmos 1809 Rocket - Pass Details

Date: 18 April 2021
Orbit: 941 x 963 km, 82.5° (Epoch: 14 May)

Event Time Altitude Azimuth Distance (km) Brightness Sun altitude
Rises 19:22:28 0° 349° (N) 3,620 8.3 -10.8°
Reaches altitude 10° 19:24:59 10° 351° (N) 2,672 7.5 -11.1°
Maximum altitude 19:31:05 72° 77° (ENE) 992 4.4 -11.8°
Enters shadow 19:37:00 11° 161° (SSE) 2,597 6.2 -12.5°
